Kingman, Arizona, United States (86401)
Lat: 35.19N, Lon: 114.05W
Wx Zone: AZZ003
Local Info
Past Weather Observations for Sunday, March 1, 2015

NOTE: This archive is for the closest National Weather Service station to Kingman. Information may differ from the station used for current weather conditions.

Click here for Long-term Archive

Time Weather Temperature Dewpoint Humidity Pressure Winds Precip Visibility
23:51
Overcast
Rain
41°F / 5°C 39°F / 4°C 93% 29.92 in
(1013 mb)
N 5.8 mph
(N 9 kph)
0.12 in
(3.05 mm)
7SM
23:36
Overcast
Rain
41°F / 5°C 39°F / 4°C 93% 29.92 in
(1013 mb)
N 6.9 mph
(N 11 kph)
0.09 in
(2.29 mm)
7SM
23:30
Overcast
Rain
41°F / 5°C 39°F / 4°C 93% 29.95 in
(1014 mb)
N 6.9 mph
(N 11 kph)
0.07 in
(1.78 mm)
7SM
23:23
Overcast
Rain
41°F / 5°C 39°F / 4°C 93% 29.95 in
(1014 mb)
N 5.8 mph
(N 9 kph)
0.05 in
(1.27 mm)
7SM
23:07
Overcast
Light Rain
41°F / 5°C 39°F / 4°C 93% 29.95 in
(1014 mb)
NE 5.8 mph
(NE 9 kph)
0.03 in
(0.76 mm)
7SM
23:04
Overcast
Light Rain
41°F / 5°C 39°F / 4°C 93% 29.95 in
(1014 mb)
NE 6.9 mph
(NE 11 kph)
0.02 in
(0.51 mm)
7SM
22:54
Overcast
Rain
41°F / 5°C 39°F / 4°C 93% 29.95 in
(1014 mb)
N 5.8 mph
(N 9 kph)
0.01 in
(0.25 mm)
5SM
22:51
Overcast
Rain
41°F / 5°C 39°F / 4°C 93% 29.95 in
(1014 mb)
N 6.9 mph
(N 11 kph)
0.04 in
(1.02 mm)
5SM
22:26
Overcast
Light Rain
41°F / 5°C 39°F / 4°C 93% 29.95 in
(1014 mb)
N 9.2 mph
(N 15 kph)
0.02 in
(0.51 mm)
6SM
21:51
Overcast
Light Rain
41°F / 5°C 39°F / 4°C 93% 29.95 in
(1014 mb)
NE 5.8 mph
(NE 9 kph)
0.03 in
(0.76 mm)
7SM
21:42
Overcast
Light Rain
41°F / 5°C 39°F / 4°C 93% 29.95 in
(1014 mb)
NNE 5.8 mph
(NNE 9 kph)
0.03 in
(0.76 mm)
8SM
21:07
Overcast
Light Rain
41°F / 5°C 39°F / 4°C 93% 29.95 in
(1014 mb)
NE 3.5 mph
(NE 6 kph)
0.01 in
(0.25 mm)
6SM
21:03
Overcast
Light Rain
41°F / 5°C 39°F / 4°C 93% 29.95 in
(1014 mb)
NE 5.8 mph
(NE 9 kph)
0.01 in
(0.25 mm)
5SM
20:51
Overcast
Light Rain
41°F / 5°C 37°F / 3°C 87% 29.95 in
(1014 mb)
NNE 3.5 mph
(NNE 6 kph)
0.03 in
(0.76 mm)
10SM
20:21
Overcast
Light Rain
41°F / 5°C 39°F / 4°C 93% 29.95 in
(1014 mb)
N 6.9 mph
(N 11 kph)
0.02 in
(0.51 mm)
10SM
19:51
Overcast
Light Rain
43°F / 6°C 39°F / 4°C 87% 29.95 in
(1014 mb)
N 9.2 mph
(N 15 kph)
0.04 in
(1.02 mm)
7SM
19:27
Overcast
Light Rain
43°F / 6°C 39°F / 4°C 87% 29.95 in
(1014 mb)
N 10.4 mph
(N 17 kph)
0.02 in
(0.51 mm)
9SM
19:21
Overcast
Light Rain
43°F / 6°C 39°F / 4°C 87% 29.95 in
(1014 mb)
N 10.4 mph
(N 17 kph)
0.01 in
(0.25 mm)
10SM
19:13
Overcast
Light Rain
43°F / 6°C 39°F / 4°C 87% 29.95 in
(1014 mb)
N 11.5 mph
(N 19 kph)
0.01 in
(0.25 mm)
9SM
18:54
Overcast
Light Rain
43°F / 6°C 41°F / 5°C 93% 29.95 in
(1014 mb)
N 9.2 mph
(N 15 kph)
0.00 in
(0.00 mm)
10SM
18:51
Overcast
Light Rain
43°F / 6°C 39°F / 4°C 87% 29.95 in
(1014 mb)
N 9.2 mph
(N 15 kph)
0.06 in
(1.52 mm)
10SM
18:46
Overcast
Light Rain
43°F / 6°C 39°F / 4°C 87% 29.95 in
(1014 mb)
N 10.4 mph
(N 17 kph)
0.06 in
(1.52 mm)
10SM
18:30
Overcast
Rain
43°F / 6°C 39°F / 4°C 87% 29.95 in
(1014 mb)
N 10.4 mph
(N 17 kph)
0.05 in
(1.27 mm)
8SM
18:23
Overcast
Rain
43°F / 6°C 39°F / 4°C 87% 29.95 in
(1014 mb)
NNW 10.4 mph
(NNW 17 kph)
0.04 in
(1.02 mm)
9SM
17:51
Overcast
Light Rain
43°F / 6°C 39°F / 4°C 87% 29.95 in
(1014 mb)
NNW 9.2 mph
(NNW 15 kph)
0.03 in
(0.76 mm)
7SM
16:51
Overcast
Light Rain
45°F / 7°C 39°F / 4°C 81% 29.95 in
(1014 mb)
NNE 5.8 mph
(NNE 9 kph)
0.01 in
(0.25 mm)
10SM
15:51
Overcast
Light Rain
45°F / 7°C 39°F / 4°C 81% 29.98 in
(1015 mb)
E 11.5 mph
(E 19 kph)
0.07 in
(1.78 mm)
8SM
15:18
Overcast
Light Rain
45°F / 7°C 39°F / 4°C 81% 29.98 in
(1015 mb)
ESE 16.1 mph
(ESE 26 kph)
0.04 in
(1.02 mm)
9SM
14:51
Overcast
Rain
45°F / 7°C 39°F / 4°C 81% 29.98 in
(1015 mb)
SE 12.7 mph
(SE 20 kph)
0.07 in
(1.78 mm)
6SM
14:16
Overcast
Light Rain
46°F / 8°C 39°F / 4°C 76% 29.98 in
(1015 mb)
Variable 5.8 mph
(Variable 9 kph)
0.02 in
(0.51 mm)
9SM
14:13
Overcast
Light Rain
46°F / 8°C 39°F / 4°C 76% 29.98 in
(1015 mb)
E 6.9 mph
(E 11 kph)
0.02 in
(0.51 mm)
8SM
14:04
Overcast
Light Rain
46°F / 8°C 39°F / 4°C 76% 29.98 in
(1015 mb)
SE 5.8 mph
(SE 9 kph)
0.01 in
(0.25 mm)
7SM
13:51
Overcast
Light Rain
46°F / 8°C 39°F / 4°C 76% 29.98 in
(1015 mb)
SE 5.8 mph
(SE 9 kph)
0.03 in
(0.76 mm)
6SM
12:51
Overcast
Light Rain
52°F / 11°C 37°F / 3°C 58% 29.98 in
(1015 mb)
WNW 3.5 mph
(WNW 6 kph)
0.00 in
(0.00 mm)
10SM
11:51
Overcast
52°F / 11°C 36°F / 2°C 54% 30.01 in
(1016 mb)
Variable 3.5 mph
(Variable 6 kph)
- 10SM
10:51
Mostly Cloudy
50°F / 10°C 36°F / 2°C 58% 30.01 in
(1016 mb)
SW 4.6 mph
(SW 7 kph)
- 10SM
09:51
Mostly Cloudy
48°F / 9°C 37°F / 3°C 66% 30.01 in
(1016 mb)
NE 5.8 mph
(NE 9 kph)
- 10SM
08:51
Overcast
48°F / 9°C 37°F / 3°C 66% 29.98 in
(1015 mb)
NE 5.8 mph
(NE 9 kph)
- 10SM
07:51
Overcast
48°F / 9°C 36°F / 2°C 62% 29.98 in
(1015 mb)
Calm - 10SM
06:51
Overcast
46°F / 8°C 34°F / 1°C 62% 29.95 in
(1014 mb)
E 3.5 mph
(E 6 kph)
- 10SM
05:51
Overcast
48°F / 9°C 34°F / 1°C 58% 29.92 in
(1013 mb)
SW 5.8 mph
(SW 9 kph)
- 10SM
04:51
Overcast
50°F / 10°C 36°F / 2°C 58% 29.92 in
(1013 mb)
SSE 12.7 mph
(SSE 20 kph)
- 10SM
03:51
Overcast
48°F / 9°C 36°F / 2°C 62% 29.89 in
(1012 mb)
SSE 5.8 mph
(SSE 9 kph)
- 10SM
02:51
Partly Cloudy
48°F / 9°C 34°F / 1°C 58% 29.89 in
(1012 mb)
SE 5.8 mph
(SE 9 kph)
- 10SM
01:51
Overcast
50°F / 10°C 36°F / 2°C 58% 29.92 in
(1013 mb)
SW 9.2 mph
(SW 15 kph)
- 10SM
00:51
Mostly Cloudy
48°F / 9°C 34°F / 1°C 58% 29.89 in
(1012 mb)
S 5.8 mph
(S 9 kph)
- 10SM
Time Weather Temperature Dewpoint Humidity Pressure Winds Precip Visibility


Weather for websites

WeatherForYou.com, LLC is not responsible for any damages or problems caused by this service. Current weather conditions are obtained from the closest station including government and personal stations which may have varying degrees of accuracy. Weather forecasts are derived from the NOAA NDFD. Like all things, this site belongs to Jesus Christ... He just trusts me to maintain it. If you have any questions or comments email webmaster@weatherforyou.com

Copyright © 2015, WeatherForYou.com LLC. All rights reserved.